Time,TemperatureF,DewpointF,PressureIn,WindDirection,WindDirectionDegrees,WindSpeedMPH,WindSpeedGustMPH,Humidity,HourlyPrecipIn,Conditions,Clouds,dailyrainin,SoftwareType,DateUTC
2013-11-04 00:01:00,32.7,18.7,30.47,NNE,12,0.0,0.9,56,0.00,,,0.00,meteobridge,2013-11-04 05:01:00,
2013-11-04 00:02:00,32.7,19.2,30.47,NNE,12,0.9,0.9,57,0.00,,,0.00,meteobridge,2013-11-04 05:02:00,
2013-11-04 00:05:00,32.7,18.7,30.47,NNW,346,2.0,2.0,56,0.00,,,0.00,meteobridge,2013-11-04 05:05:00,
2013-11-04 00:06:00,32.5,18.5,30.47,West,266,2.0,2.0,56,0.00,,,0.00,meteobridge,2013-11-04 05:06:00,
2013-11-04 00:07:00,32.5,19.0,30.47,North,5,0.0,2.0,57,0.00,,,0.00,meteobridge,2013-11-04 05:07:00,
2013-11-04 00:11:00,32.5,18.1,30.47,North,0,4.0,6.0,55,0.00,,,0.00,meteobridge,2013-11-04 05:11:00,
2013-11-04 00:16:00,32.5,18.1,30.48,North,350,4.0,4.0,55,0.00,,,0.00,meteobridge,2013-11-04 05:16:00,
2013-11-04 00:21:00,32.5,18.1,30.48,NNE,17,0.0,2.0,55,0.00,,,0.00,meteobridge,2013-11-04 05:21:00,
2013-11-04 00:27:00,32.4,17.6,30.48,NNE,32,0.9,2.9,54,0.00,,,0.00,meteobridge,2013-11-04 05:27:00,
2013-11-04 00:32:00,32.4,18.0,30.48,NNE,21,2.9,2.9,55,0.00,,,0.00,meteobridge,2013-11-04 05:32:00,
2013-11-04 00:37:00,32.2,18.3,30.49,NNE,30,4.0,4.0,56,0.00,,,0.00,meteobridge,2013-11-04 05:37:00,
2013-11-04 00:42:00,32.2,17.8,30.49,North,349,0.9,2.0,55,0.00,,,0.00,meteobridge,2013-11-04 05:42:00,
2013-11-04 00:47:00,32.0,18.5,30.49,NE,55,0.9,2.0,57,0.00,,,0.00,meteobridge,2013-11-04 05:47:00,
2013-11-04 00:52:00,31.8,17.4,30.49,NE,36,4.0,4.9,55,0.00,,,0.00,meteobridge,2013-11-04 05:52:00,
2013-11-04 00:57:00,31.8,18.0,30.49,NNE,25,0.0,4.9,56,0.00,,,0.00,meteobridge,2013-11-04 05:57:00,
2013-11-04 01:03:00,31.6,17.8,30.49,NE,34,2.0,4.0,56,0.00,,,0.00,meteobridge,2013-11-04 06:03:00,
2013-11-04 01:08:00,31.6,17.8,30.50,North,5,0.9,2.9,56,0.00,,,0.00,meteobridge,2013-11-04 06:08:00,
2013-11-04 01:13:00,31.6,17.8,30.50,NE,47,2.0,4.9,56,0.00,,,0.00,meteobridge,2013-11-04 06:13:00,
2013-11-04 01:18:00,31.6,18.1,30.50,NNE,32,2.0,2.9,57,0.00,,,0.00,meteobridge,2013-11-04 06:18:00,
2013-11-04 01:24:00,31.6,17.8,30.50,NNE,26,2.9,6.0,56,0.00,,,0.00,meteobridge,2013-11-04 06:24:00,
2013-11-04 01:29:00,31.6,17.8,30.51,North,10,0.0,4.0,56,0.00,,,0.00,meteobridge,2013-11-04 06:29:00,
2013-11-04 01:34:00,31.6,17.8,30.51,NE,34,0.9,4.0,56,0.00,,,0.00,meteobridge,2013-11-04 06:34:00,
2013-11-04 01:40:00,31.6,17.8,30.51,North,5,2.9,4.9,56,0.00,,,0.00,meteobridge,2013-11-04 06:40:00,
2013-11-04 01:45:00,31.6,17.8,30.51,North,355,0.9,2.9,56,0.00,,,0.00,meteobridge,2013-11-04 06:45:00,
2013-11-04 01:50:00,31.5,17.6,30.51,North,0,2.0,8.1,56,0.00,,,0.00,meteobridge,2013-11-04 06:50:00,
2013-11-04 01:56:00,31.5,17.6,30.51,NNE,28,4.9,4.9,56,0.00,,,0.00,meteobridge,2013-11-04 06:56:00,
2013-11-04 02:01:00,31.5,18.0,30.52,NNE,23,2.0,2.9,57,0.00,,,0.00,meteobridge,2013-11-04 07:01:00,
2013-11-04 02:06:00,31.5,17.6,30.52,NE,36,0.9,6.9,56,0.00,,,0.00,meteobridge,2013-11-04 07:06:00,
2013-11-04 02:11:00,31.5,18.0,30.52,NE,37,0.0,2.9,57,0.00,,,0.00,meteobridge,2013-11-04 07:11:00,
2013-11-04 02:17:00,31.3,17.8,30.52,NW,319,2.9,4.9,57,0.00,,,0.00,meteobridge,2013-11-04 07:17:00,
2013-11-04 02:22:00,31.3,18.1,30.52,North,355,6.9,6.9,58,0.00,,,0.00,meteobridge,2013-11-04 07:22:00,
2013-11-04 02:27:00,31.3,18.1,30.52,NE,36,4.9,4.9,58,0.00,,,0.00,meteobridge,2013-11-04 07:27:00,
2013-11-04 02:33:00,31.3,18.1,30.52,NNE,12,0.0,6.9,58,0.00,,,0.00,meteobridge,2013-11-04 07:33:00,
2013-11-04 02:38:00,31.3,18.1,30.52,East,86,2.0,6.0,58,0.00,,,0.00,meteobridge,2013-11-04 07:38:00,
2013-11-04 02:43:00,31.3,18.7,30.52,North,5,6.0,6.0,59,0.00,,,0.00,meteobridge,2013-11-04 07:43:00,
2013-11-04 02:49:00,31.3,18.7,30.52,NNE,16,2.0,2.0,59,0.00,,,0.00,meteobridge,2013-11-04 07:49:00,
2013-11-04 02:54:00,31.1,18.5,30.53,North,0,4.0,8.1,59,0.00,,,0.00,meteobridge,2013-11-04 07:54:00,
2013-11-04 03:00:00,31.1,18.5,30.53,North,5,0.0,2.9,59,0.00,,,0.00,meteobridge,2013-11-04 08:00:00,
2013-11-04 03:05:00,31.1,18.9,30.53,North,0,0.0,2.0,60,0.00,,,0.00,meteobridge,2013-11-04 08:05:00,
2013-11-04 03:10:00,30.9,18.7,30.53,North,5,0.0,2.0,60,0.00,,,0.00,meteobridge,2013-11-04 08:10:00,
2013-11-04 03:16:00,30.7,19.2,30.53,NNE,27,2.9,4.9,62,0.00,,,0.00,meteobridge,2013-11-04 08:16:00,
2013-11-04 03:21:00,30.6,19.0,30.54,North,5,0.0,2.9,62,0.00,,,0.00,meteobridge,2013-11-04 08:21:00,
2013-11-04 03:26:00,30.4,19.2,30.54,North,355,0.9,2.9,63,0.00,,,0.00,meteobridge,2013-11-04 08:26:00,
2013-11-04 03:32:00,30.4,19.6,30.54,North,5,0.0,0.9,64,0.00,,,0.00,meteobridge,2013-11-04 08:32:00,
2013-11-04 03:37:00,30.4,20.3,30.54,North,5,0.9,0.9,66,0.00,,,0.00,meteobridge,2013-11-04 08:37:00,
2013-11-04 03:43:00,30.0,19.8,30.54,North,355,0.0,2.0,65,0.00,,,0.00,meteobridge,2013-11-04 08:43:00,
2013-11-04 03:48:00,30.0,20.5,30.54,North,5,2.9,6.9,67,0.00,,,0.00,meteobridge,2013-11-04 08:48:00,
2013-11-04 03:53:00,30.4,19.9,30.54,ENE,63,2.9,6.9,65,0.00,,,0.00,meteobridge,2013-11-04 08:53:00,
2013-11-04 03:58:00,30.6,19.8,30.55,ENE,62,2.0,8.9,64,0.00,,,0.00,meteobridge,2013-11-04 08:58:00,
2013-11-04 04:03:00,30.6,19.4,30.55,NNW,342,2.9,4.9,63,0.00,,,0.00,meteobridge,2013-11-04 09:03:00,
2013-11-04 04:09:00,30.7,19.6,30.55,NNW,341,0.0,4.9,63,0.00,,,0.00,meteobridge,2013-11-04 09:09:00,
2013-11-04 04:14:00,30.9,19.4,30.55,ESE,109,0.0,4.0,62,0.00,,,0.00,meteobridge,2013-11-04 09:14:00,
2013-11-04 04:19:00,30.9,19.4,30.55,NNE,26,2.0,2.0,62,0.00,,,0.00,meteobridge,2013-11-04 09:19:00,
2013-11-04 04:24:00,30.9,19.0,30.56,NE,41,0.9,2.9,61,0.00,,,0.00,meteobridge,2013-11-04 09:24:00,
2013-11-04 04:29:00,30.9,19.0,30.56,NNE,19,2.0,6.0,61,0.00,,,0.00,meteobridge,2013-11-04 09:29:00,
2013-11-04 04:34:00,30.9,19.0,30.56,NW,321,0.9,6.0,61,0.00,,,0.00,meteobridge,2013-11-04 09:34:00,
2013-11-04 04:40:00,30.9,19.4,30.56,North,0,0.0,0.9,62,0.00,,,0.00,meteobridge,2013-11-04 09:40:00,
2013-11-04 04:45:00,30.9,19.4,30.56,NNE,13,0.0,0.9,62,0.00,,,0.00,meteobridge,2013-11-04 09:45:00,
2013-11-04 04:50:00,30.7,19.2,30.56,North,0,2.9,2.9,62,0.00,,,0.00,meteobridge,2013-11-04 09:50:00,
2013-11-04 04:55:00,30.7,19.2,30.57,NW,313,2.0,2.9,62,0.00,,,0.00,meteobridge,2013-11-04 09:55:00,
2013-11-04 05:00:00,30.7,19.2,30.57,North,0,0.0,2.0,62,0.00,,,0.00,meteobridge,2013-11-04 10:00:00,
2013-11-04 05:06:00,30.7,19.6,30.57,North,355,0.0,4.9,63,0.00,,,0.00,meteobridge,2013-11-04 10:06:00,
2013-11-04 05:11:00,30.7,19.2,30.58,North,9,2.0,2.0,62,0.00,,,0.00,meteobridge,2013-11-04 10:11:00,
2013-11-04 05:17:00,30.7,19.2,30.57,NNE,13,0.9,4.0,62,0.00,,,0.00,meteobridge,2013-11-04 10:17:00,
2013-11-04 05:22:00,30.6,19.0,30.58,NNE,21,2.0,4.0,62,0.00,,,0.00,meteobridge,2013-11-04 10:22:00,
2013-11-04 05:27:00,30.6,19.4,30.58,NNE,19,0.9,6.0,63,0.00,,,0.00,meteobridge,2013-11-04 10:27:00,
2013-11-04 05:33:00,30.6,19.4,30.58,NNE,17,0.9,2.0,63,0.00,,,0.00,meteobridge,2013-11-04 10:33:00,
2013-11-04 05:38:00,30.4,19.6,30.58,NNE,33,0.0,2.9,64,0.00,,,0.00,meteobridge,2013-11-04 10:38:00,
2013-11-04 05:43:00,30.4,19.9,30.58,NE,37,0.0,0.0,65,0.00,,,0.00,meteobridge,2013-11-04 10:43:00,
2013-11-04 05:49:00,30.0,19.8,30.59,ENE,70,0.0,2.0,65,0.00,,,0.00,meteobridge,2013-11-04 10:49:00,
2013-11-04 05:54:00,29.8,19.2,30.59,North,5,2.0,4.9,64,0.00,,,0.00,meteobridge,2013-11-04 10:54:00,
2013-11-04 05:59:00,29.8,19.9,30.59,NNE,19,2.9,6.0,66,0.00,,,0.00,meteobridge,2013-11-04 10:59:00,
2013-11-04 06:05:00,29.7,19.8,30.58,NNE,18,0.0,4.9,66,0.00,,,0.00,meteobridge,2013-11-04 11:05:00,
2013-11-04 06:10:00,29.7,19.8,30.59,NNE,30,0.9,2.0,66,0.00,,,0.00,meteobridge,2013-11-04 11:10:00,
2013-11-04 06:15:00,29.7,19.8,30.59,NNE,30,0.0,2.0,66,0.00,,,0.00,meteobridge,2013-11-04 11:15:00,
2013-11-04 06:20:00,29.5,20.3,30.60,NNE,29,0.0,2.0,68,0.00,,,0.00,meteobridge,2013-11-04 11:20:00,
2013-11-04 06:24:00,29.5,20.3,30.60,NNE,29,0.0,0.9,68,0.00,,,0.00,meteobridge,2013-11-04 11:24:00,
2013-11-04 06:29:00,29.5,19.9,30.60,North,9,2.9,2.9,67,0.00,,,0.00,meteobridge,2013-11-04 11:29:00,
2013-11-04 06:34:00,29.7,19.8,30.60,NNW,346,0.9,2.0,66,0.00,,,0.00,meteobridge,2013-11-04 11:34:00,
2013-11-04 06:40:00,29.8,19.2,30.61,NE,45,2.0,2.9,64,0.00,,,0.00,meteobridge,2013-11-04 11:40:00,
2013-11-04 06:45:00,30.2,19.6,30.61,NNE,13,0.9,6.9,64,0.00,,,0.00,meteobridge,2013-11-04 11:45:00,
2013-11-04 06:51:00,30.4,18.9,30.61,NNE,12,2.0,4.0,62,0.00,,,0.00,meteobridge,2013-11-04 11:51:00,
2013-11-04 06:56:00,30.6,19.4,30.61,North,355,0.9,2.0,63,0.00,,,0.00,meteobridge,2013-11-04 11:56:00,
2013-11-04 07:01:00,30.6,19.4,30.61,East,82,2.0,2.0,63,0.00,,,0.00,meteobridge,2013-11-04 12:01:00,
2013-11-04 07:06:00,30.7,18.9,30.61,NNE,12,2.0,4.9,61,0.00,,,0.00,meteobridge,2013-11-04 12:06:00,
2013-11-04 07:11:00,30.7,18.9,30.61,NNE,24,2.0,4.9,61,0.00,,,0.00,meteobridge,2013-11-04 12:11:00,
2013-11-04 07:16:00,30.9,18.7,30.61,NE,38,0.9,2.0,60,0.00,,,0.00,meteobridge,2013-11-04 12:16:00,
2013-11-04 07:22:00,30.9,18.7,30.61,North,349,0.9,6.0,60,0.00,,,0.00,meteobridge,2013-11-04 12:22:00,
2013-11-04 07:27:00,31.1,18.9,30.62,East,97,0.0,4.0,60,0.00,,,0.00,meteobridge,2013-11-04 12:27:00,
2013-11-04 07:32:00,31.1,18.1,30.62,East,80,0.0,2.0,58,0.00,,,0.00,meteobridge,2013-11-04 12:32:00,
2013-11-04 07:37:00,31.3,18.7,30.62,NE,36,0.0,4.9,59,0.00,,,0.00,meteobridge,2013-11-04 12:37:00,
2013-11-04 07:42:00,31.3,17.8,30.62,NE,50,2.0,12.1,57,0.00,,,0.00,meteobridge,2013-11-04 12:42:00,
2013-11-04 07:47:00,31.5,18.3,30.63,NE,53,2.0,4.9,58,0.00,,,0.00,meteobridge,2013-11-04 12:47:00,
2013-11-04 07:53:00,31.5,18.0,30.62,ENE,68,2.0,4.9,57,0.00,,,0.00,meteobridge,2013-11-04 12:53:00,
2013-11-04 07:58:00,31.6,19.4,30.62,ENE,78,0.0,0.9,60,0.00,,,0.00,meteobridge,2013-11-04 12:58:00,
2013-11-04 08:03:00,31.6,17.2,30.63,NNW,327,0.9,4.0,55,0.00,,,0.00,meteobridge,2013-11-04 13:03:00,
2013-11-04 08:09:00,31.8,17.4,30.63,NNE,22,2.0,4.0,55,0.00,,,0.00,meteobridge,2013-11-04 13:09:00,
2013-11-04 08:14:00,32.0,18.1,30.63,North,5,2.0,8.1,56,0.00,,,0.00,meteobridge,2013-11-04 13:14:00,
2013-11-04 08:19:00,32.0,18.5,30.63,South,175,0.0,0.9,57,0.00,,,0.00,meteobridge,2013-11-04 13:19:00,
2013-11-04 08:24:00,32.2,18.3,30.63,NNE,21,0.0,2.0,56,0.00,,,0.00,meteobridge,2013-11-04 13:24:00,
2013-11-04 08:29:00,32.4,17.6,30.64,NNE,15,0.0,4.9,54,0.00,,,0.00,meteobridge,2013-11-04 13:29:00,
2013-11-04 08:34:00,32.5,19.0,30.64,NE,42,2.9,4.0,57,0.00,,,0.00,meteobridge,2013-11-04 13:34:00,
2013-11-04 08:40:00,32.5,18.1,30.64,North,355,0.9,4.9,55,0.00,,,0.00,meteobridge,2013-11-04 13:40:00,
2013-11-04 08:45:00,32.7,17.4,30.64,ENE,59,2.9,2.9,53,0.00,,,0.00,meteobridge,2013-11-04 13:45:00,
2013-11-04 08:50:00,32.9,18.1,30.64,North,5,0.0,4.9,54,0.00,,,0.00,meteobridge,2013-11-04 13:50:00,
2013-11-04 08:55:00,33.1,18.7,30.65,NNE,15,0.0,0.9,55,0.00,,,0.00,meteobridge,2013-11-04 13:55:00,
2013-11-04 09:00:00,33.3,17.6,30.65,North,0,4.0,4.0,52,0.00,,,0.00,meteobridge,2013-11-04 14:00:00,
2013-11-04 09:06:00,33.4,17.8,30.65,North,5,0.9,0.9,52,0.00,,,0.00,meteobridge,2013-11-04 14:06:00,
2013-11-04 09:11:00,33.6,17.4,30.65,NE,41,2.9,6.0,51,0.00,,,0.00,meteobridge,2013-11-04 14:11:00,
2013-11-04 09:16:00,34.0,17.8,30.65,East,80,2.0,2.9,51,0.00,,,0.00,meteobridge,2013-11-04 14:16:00,
2013-11-04 09:22:00,34.2,17.4,30.65,NNW,343,0.9,2.9,50,0.00,,,0.00,meteobridge,2013-11-04 14:22:00,
2013-11-04 09:27:00,34.5,17.8,30.65,North,355,0.0,0.9,50,0.00,,,0.00,meteobridge,2013-11-04 14:27:00,
2013-11-04 09:32:00,34.9,18.1,30.64,East,100,0.9,0.9,50,0.00,,,0.00,meteobridge,2013-11-04 14:32:00,
2013-11-04 09:37:00,35.2,18.0,30.64,NNE,30,0.9,2.9,49,0.00,,,0.00,meteobridge,2013-11-04 14:37:00,
2013-11-04 09:43:00,35.4,17.6,30.64,NE,56,0.0,2.0,48,0.00,,,0.00,meteobridge,2013-11-04 14:43:00,
2013-11-04 09:48:00,35.8,18.0,30.65,ENE,67,0.0,2.0,48,0.00,,,0.00,meteobridge,2013-11-04 14:48:00,
2013-11-04 09:54:00,36.1,18.3,30.65,ENE,73,0.9,0.9,48,0.00,,,0.00,meteobridge,2013-11-04 14:54:00,
2013-11-04 09:59:00,36.3,18.0,30.66,North,11,2.0,2.9,47,0.00,,,0.00,meteobridge,2013-11-04 14:59:00,
2013-11-04 10:04:00,36.7,18.3,30.66,NW,319,0.0,2.0,47,0.00,,,0.00,meteobridge,2013-11-04 15:04:00,
2013-11-04 10:09:00,36.9,17.4,30.66,NNE,28,2.0,2.0,45,0.00,,,0.00,meteobridge,2013-11-04 15:09:00,
2013-11-04 10:14:00,37.0,18.1,30.66,ENE,68,0.9,2.0,46,0.00,,,0.00,meteobridge,2013-11-04 15:14:00,
2013-11-04 10:19:00,37.4,18.0,30.66,ENE,60,0.9,2.0,45,0.00,,,0.00,meteobridge,2013-11-04 15:19:00,
2013-11-04 10:24:00,37.6,17.6,30.66,ENE,62,0.0,2.0,44,0.00,,,0.00,meteobridge,2013-11-04 15:24:00,
2013-11-04 10:29:00,37.8,17.8,30.66,North,355,0.9,4.0,44,0.00,,,0.00,meteobridge,2013-11-04 15:29:00,
2013-11-04 10:35:00,37.9,17.4,30.66,NE,43,0.0,0.9,43,0.00,,,0.00,meteobridge,2013-11-04 15:35:00,
2013-11-04 10:40:00,38.1,17.6,30.65,NE,53,0.0,2.0,43,0.00,,,0.00,meteobridge,2013-11-04 15:40:00,
2013-11-04 10:45:00,38.5,17.4,30.66,NNW,337,0.0,2.9,42,0.00,,,0.00,meteobridge,2013-11-04 15:45:00,
2013-11-04 10:51:00,38.7,17.1,30.66,ENE,78,0.0,2.0,41,0.00,,,0.00,meteobridge,2013-11-04 15:51:00,
2013-11-04 10:56:00,38.7,17.1,30.66,NE,43,0.0,4.0,41,0.00,,,0.00,meteobridge,2013-11-04 15:56:00,
2013-11-04 11:01:00,38.7,16.3,30.66,East,86,0.9,2.0,40,0.00,,,0.00,meteobridge,2013-11-04 16:01:00,
2013-11-04 11:07:00,38.8,17.1,30.66,ENE,59,0.0,2.0,41,0.00,,,0.00,meteobridge,2013-11-04 16:07:00,
2013-11-04 11:12:00,39.0,18.5,30.65,South,176,2.9,4.0,43,0.00,,,0.00,meteobridge,2013-11-04 16:12:00,
2013-11-04 11:17:00,39.4,17.1,30.65,ENE,58,2.0,2.0,40,0.00,,,0.00,meteobridge,2013-11-04 16:17:00,
2013-11-04 11:23:00,39.6,17.2,30.65,NNE,13,0.9,2.9,40,0.00,,,0.00,meteobridge,2013-11-04 16:23:00,
2013-11-04 11:28:00,39.6,16.7,30.65,ENE,74,0.9,2.0,39,0.00,,,0.00,meteobridge,2013-11-04 16:28:00,
2013-11-04 11:34:00,39.7,16.9,30.64,NW,323,0.0,4.9,39,0.00,,,0.00,meteobridge,2013-11-04 16:34:00,
2013-11-04 11:39:00,39.9,16.9,30.64,NNW,348,0.0,2.0,39,0.00,,,0.00,meteobridge,2013-11-04 16:39:00,
2013-11-04 11:44:00,39.9,16.3,30.64,NNE,15,0.9,4.0,38,0.00,,,0.00,meteobridge,2013-11-04 16:44:00,
2013-11-04 11:49:00,39.9,15.8,30.63,NNE,15,2.0,2.9,37,0.00,,,0.00,meteobridge,2013-11-04 16:49:00,
2013-11-04 11:54:00,39.9,16.3,30.63,North,355,2.9,4.9,38,0.00,,,0.00,meteobridge,2013-11-04 16:54:00,
2013-11-04 11:59:00,40.1,16.0,30.63,NE,54,0.9,2.9,37,0.00,,,0.00,meteobridge,2013-11-04 16:59:00,
2013-11-04 12:05:00,40.3,15.4,30.63,North,11,0.9,0.9,36,0.00,,,0.00,meteobridge,2013-11-04 17:05:00,
2013-11-04 12:10:00,40.3,16.2,30.63,North,5,0.9,2.9,37,0.00,,,0.00,meteobridge,2013-11-04 17:10:00,
2013-11-04 12:15:00,40.5,16.2,30.63,North,5,0.0,4.0,37,0.00,,,0.00,meteobridge,2013-11-04 17:15:00,
2013-11-04 12:21:00,40.6,16.3,30.63,NNE,21,2.0,2.9,37,0.00,,,0.00,meteobridge,2013-11-04 17:21:00,
2013-11-04 12:26:00,40.8,17.2,30.62,North,355,0.0,2.9,38,0.00,,,0.00,meteobridge,2013-11-04 17:26:00,
2013-11-04 12:31:00,41.0,16.2,30.62,North,5,0.9,2.0,36,0.00,,,0.00,meteobridge,2013-11-04 17:31:00,
2013-11-04 12:37:00,41.4,15.8,30.62,NW,311,0.0,4.9,35,0.00,,,0.00,meteobridge,2013-11-04 17:37:00,
2013-11-04 12:42:00,41.4,17.1,30.62,East,84,0.0,2.9,37,0.00,,,0.00,meteobridge,2013-11-04 17:42:00,
2013-11-04 12:47:00,41.5,16.5,30.62,North,355,4.9,4.9,36,0.00,,,0.00,meteobridge,2013-11-04 17:47:00,
2013-11-04 12:52:00,41.5,17.2,30.62,SW,223,0.0,2.9,37,0.00,,,0.00,meteobridge,2013-11-04 17:52:00,
2013-11-04 12:57:00,41.5,17.8,30.62,South,190,0.9,2.9,38,0.00,,,0.00,meteobridge,2013-11-04 17:57:00,
2013-11-04 13:02:00,41.7,18.5,30.62,NNE,22,2.0,2.9,39,0.00,,,0.00,meteobridge,2013-11-04 18:02:00,
2013-11-04 13:07:00,41.9,15.6,30.62,North,350,0.0,4.0,34,0.00,,,0.00,meteobridge,2013-11-04 18:07:00,
2013-11-04 13:13:00,42.1,15.1,30.63,NNW,334,2.9,6.0,33,0.00,,,0.00,meteobridge,2013-11-04 18:13:00,
2013-11-04 13:18:00,42.3,15.8,30.63,North,0,4.0,4.0,34,0.00,,,0.00,meteobridge,2013-11-04 18:18:00,
2013-11-04 13:24:00,42.1,15.1,30.63,NNE,19,0.0,0.0,33,0.00,,,0.00,meteobridge,2013-11-04 18:24:00,
2013-11-04 13:29:00,41.7,16.2,30.63,West,259,0.0,0.9,35,0.00,,,0.00,meteobridge,2013-11-04 18:29:00,
2013-11-04 13:34:00,41.7,16.2,30.63,WNW,291,0.0,2.0,35,0.00,,,0.00,meteobridge,2013-11-04 18:34:00,
2013-11-04 13:39:00,41.9,17.6,30.63,WNW,296,2.0,6.0,37,0.00,,,0.00,meteobridge,2013-11-04 18:39:00,
2013-11-04 13:45:00,42.1,16.3,30.63,WSW,251,0.0,0.0,35,0.00,,,0.00,meteobridge,2013-11-04 18:45:00,
2013-11-04 13:50:00,42.1,15.8,30.63,North,9,2.9,4.0,34,0.00,,,0.00,meteobridge,2013-11-04 18:50:00,
2013-11-04 13:55:00,42.3,17.2,30.63,ENE,75,0.9,2.0,36,0.00,,,0.00,meteobridge,2013-11-04 18:55:00,
2013-11-04 14:01:00,42.3,15.8,30.62,NE,49,2.9,2.9,34,0.00,,,0.00,meteobridge,2013-11-04 19:01:00,
2013-11-04 14:06:00,42.6,16.2,30.63,NNE,15,2.0,2.9,34,0.00,,,0.00,meteobridge,2013-11-04 19:06:00,
2013-11-04 14:11:00,42.8,17.1,30.63,NNW,336,2.0,2.0,35,0.00,,,0.00,meteobridge,2013-11-04 19:11:00,
2013-11-04 14:17:00,43.0,15.1,30.63,NNE,16,0.0,2.9,32,0.00,,,0.00,meteobridge,2013-11-04 19:17:00,
2013-11-04 14:22:00,42.8,15.6,30.62,NNE,14,0.9,2.9,33,0.00,,,0.00,meteobridge,2013-11-04 19:22:00,
2013-11-04 14:28:00,42.6,16.2,30.63,NW,326,0.9,2.9,34,0.00,,,0.00,meteobridge,2013-11-04 19:28:00,
2013-11-04 14:33:00,42.8,17.6,30.62,NE,51,0.9,4.9,36,0.00,,,0.00,meteobridge,2013-11-04 19:33:00,
2013-11-04 14:38:00,43.0,15.8,30.62,North,5,2.9,4.9,33,0.00,,,0.00,meteobridge,2013-11-04 19:38:00,
2013-11-04 14:44:00,43.2,16.7,30.62,North,0,0.0,2.0,34,0.00,,,0.00,meteobridge,2013-11-04 19:44:00,
2013-11-04 14:49:00,43.2,16.0,30.63,ENE,70,0.0,0.9,33,0.00,,,0.00,meteobridge,2013-11-04 19:49:00,
2013-11-04 14:55:00,43.2,16.0,30.63,NE,38,0.0,4.9,33,0.00,,,0.00,meteobridge,2013-11-04 19:55:00,
2013-11-04 15:00:00,43.2,17.4,30.63,NNE,27,0.9,0.9,35,0.00,,,0.00,meteobridge,2013-11-04 20:00:00,
2013-11-04 15:05:00,43.0,15.1,30.63,North,5,4.9,6.0,32,0.00,,,0.00,meteobridge,2013-11-04 20:05:00,
2013-11-04 15:11:00,43.0,15.1,30.63,North,11,2.0,6.9,32,0.00,,,0.00,meteobridge,2013-11-04 20:11:00,
2013-11-04 15:16:00,43.0,15.8,30.63,NNW,336,2.0,2.0,33,0.00,,,0.00,meteobridge,2013-11-04 20:16:00,
2013-11-04 15:21:00,43.2,15.3,30.63,NNW,336,0.0,2.9,32,0.00,,,0.00,meteobridge,2013-11-04 20:21:00,
2013-11-04 15:26:00,43.0,15.8,30.63,NNW,336,0.9,0.9,33,0.00,,,0.00,meteobridge,2013-11-04 20:26:00,
2013-11-04 15:32:00,43.0,17.2,30.63,West,270,0.0,2.0,35,0.00,,,0.00,meteobridge,2013-11-04 20:32:00,
2013-11-04 15:37:00,42.6,15.4,30.63,West,270,0.0,0.9,33,0.00,,,0.00,meteobridge,2013-11-04 20:37:00,
2013-11-04 15:42:00,42.4,16.7,30.64,South,173,0.0,2.0,35,0.00,,,0.00,meteobridge,2013-11-04 20:42:00,
2013-11-04 15:47:00,42.4,15.4,30.64,South,173,0.0,0.0,33,0.00,,,0.00,meteobridge,2013-11-04 20:47:00,
2013-11-04 15:53:00,42.3,16.5,30.64,South,173,0.0,0.0,35,0.00,,,0.00,meteobridge,2013-11-04 20:53:00,
2013-11-04 15:58:00,42.1,17.6,30.64,South,169,0.9,2.9,37,0.00,,,0.00,meteobridge,2013-11-04 20:58:00,
2013-11-04 16:03:00,41.9,17.6,30.64,SSW,213,0.9,4.0,37,0.00,,,0.00,meteobridge,2013-11-04 21:03:00,
2013-11-04 16:08:00,41.7,16.7,30.63,SSW,213,0.0,0.9,36,0.00,,,0.00,meteobridge,2013-11-04 21:08:00,
2013-11-04 16:14:00,41.5,17.2,30.64,SSW,193,0.0,2.0,37,0.00,,,0.00,meteobridge,2013-11-04 21:14:00,
2013-11-04 16:19:00,41.2,18.1,30.64,South,186,0.0,2.0,39,0.00,,,0.00,meteobridge,2013-11-04 21:19:00,
2013-11-04 16:24:00,40.8,18.3,30.64,South,186,0.0,0.9,40,0.00,,,0.00,meteobridge,2013-11-04 21:24:00,
2013-11-04 16:30:00,40.6,19.4,30.64,South,186,0.0,0.0,42,0.00,,,0.00,meteobridge,2013-11-04 21:30:00,
2013-11-04 16:36:00,40.5,19.8,30.65,South,186,0.0,0.0,43,0.00,,,0.00,meteobridge,2013-11-04 21:36:00,
2013-11-04 16:41:00,39.9,21.7,30.65,South,186,0.0,0.0,48,0.00,,,0.00,meteobridge,2013-11-04 21:41:00,
2013-11-04 16:46:00,39.7,21.2,30.65,South,186,0.0,0.0,47,0.00,,,0.00,meteobridge,2013-11-04 21:46:00,
2013-11-04 16:52:00,39.4,21.4,30.65,South,186,0.0,0.0,48,0.00,,,0.00,meteobridge,2013-11-04 21:52:00,
2013-11-04 16:57:00,39.0,21.6,30.65,South,186,0.0,0.0,49,0.00,,,0.00,meteobridge,2013-11-04 21:57:00,
2013-11-04 17:02:00,38.7,22.1,30.65,South,186,0.0,0.0,51,0.00,,,0.00,meteobridge,2013-11-04 22:02:00,
2013-11-04 17:08:00,38.3,21.7,30.65,South,186,0.0,0.0,51,0.00,,,0.00,meteobridge,2013-11-04 22:08:00,
2013-11-04 17:13:00,37.9,22.3,30.65,South,186,0.0,0.0,53,0.00,,,0.00,meteobridge,2013-11-04 22:13:00,
2013-11-04 17:18:00,37.6,21.9,30.66,South,186,0.0,0.0,53,0.00,,,0.00,meteobridge,2013-11-04 22:18:00,
2013-11-04 17:24:00,37.2,22.1,30.66,South,186,0.0,0.0,54,0.00,,,0.00,meteobridge,2013-11-04 22:24:00,
2013-11-04 17:29:00,36.9,21.7,30.65,South,186,0.0,0.0,54,0.00,,,0.00,meteobridge,2013-11-04 22:29:00,
2013-11-04 17:34:00,36.5,21.4,30.65,South,186,0.0,0.0,54,0.00,,,0.00,meteobridge,2013-11-04 22:34:00,
2013-11-04 17:40:00,36.1,21.9,30.66,South,186,0.0,0.0,56,0.00,,,0.00,meteobridge,2013-11-04 22:40:00,
2013-11-04 17:45:00,36.0,22.3,30.66,South,186,0.0,0.0,57,0.00,,,0.00,meteobridge,2013-11-04 22:45:00,
2013-11-04 17:50:00,35.6,21.9,30.66,South,186,0.0,0.0,57,0.00,,,0.00,meteobridge,2013-11-04 22:50:00,
2013-11-04 17:56:00,35.2,21.9,30.66,South,186,0.0,0.0,58,0.00,,,0.00,meteobridge,2013-11-04 22:56:00,
2013-11-04 18:01:00,35.1,22.6,30.66,South,186,0.0,0.0,60,0.00,,,0.00,meteobridge,2013-11-04 23:01:00,
2013-11-04 18:07:00,34.9,23.2,30.66,South,186,0.0,0.0,62,0.00,,,0.00,meteobridge,2013-11-04 23:07:00,
2013-11-04 18:12:00,34.5,22.5,30.67,South,186,0.0,0.0,61,0.00,,,0.00,meteobridge,2013-11-04 23:12:00,
2013-11-04 18:17:00,34.3,21.9,30.67,South,186,0.0,0.0,60,0.00,,,0.00,meteobridge,2013-11-04 23:17:00,
2013-11-04 18:23:00,34.2,22.5,30.67,South,186,0.0,0.0,62,0.00,,,0.00,meteobridge,2013-11-04 23:23:00,
2013-11-04 18:28:00,34.0,22.3,30.67,South,186,0.0,0.0,62,0.00,,,0.00,meteobridge,2013-11-04 23:28:00,
2013-11-04 18:34:00,34.0,22.3,30.67,South,186,0.0,0.0,62,0.00,,,0.00,meteobridge,2013-11-04 23:34:00,
2013-11-04 18:39:00,34.0,23.0,30.67,South,186,0.0,0.0,64,0.00,,,0.00,meteobridge,2013-11-04 23:39:00,
2013-11-04 18:44:00,33.8,23.4,30.67,South,186,0.0,0.0,65,0.00,,,0.00,meteobridge,2013-11-04 23:44:00,
2013-11-04 18:50:00,33.8,23.0,30.67,South,186,0.0,0.0,64,0.00,,,0.00,meteobridge,2013-11-04 23:50:00,
2013-11-04 18:55:00,33.6,22.8,30.67,South,186,0.0,0.0,64,0.00,,,0.00,meteobridge,2013-11-04 23:55:00,
2013-11-04 19:01:00,33.6,23.2,30.67,South,186,0.0,0.0,65,0.00,,,0.00,meteobridge,2013-11-05 00:01:00,
2013-11-04 19:06:00,33.6,23.2,30.67,South,186,0.0,0.0,65,0.00,,,0.00,meteobridge,2013-11-05 00:06:00,
2013-11-04 19:11:00,33.6,22.5,30.67,South,186,0.0,0.0,63,0.00,,,0.00,meteobridge,2013-11-05 00:11:00,
2013-11-04 19:17:00,33.6,22.5,30.67,South,186,0.0,0.0,63,0.00,,,0.00,meteobridge,2013-11-05 00:17:00,
2013-11-04 19:22:00,33.6,22.5,30.67,South,186,0.0,0.0,63,0.00,,,0.00,meteobridge,2013-11-05 00:22:00,
2013-11-04 19:28:00,33.4,23.0,30.67,South,186,0.0,0.0,65,0.00,,,0.00,meteobridge,2013-11-05 00:28:00,
2013-11-04 19:34:00,33.4,23.4,30.66,South,186,0.0,0.0,66,0.00,,,0.00,meteobridge,2013-11-05 00:34:00,
2013-11-04 19:39:00,33.4,24.1,30.66,South,186,0.0,0.0,68,0.00,,,0.00,meteobridge,2013-11-05 00:39:00,
2013-11-04 19:45:00,33.3,23.5,30.66,South,186,0.0,0.0,67,0.00,,,0.00,meteobridge,2013-11-05 00:45:00,
2013-11-04 19:50:00,33.3,23.9,30.67,South,186,0.0,0.0,68,0.00,,,0.00,meteobridge,2013-11-05 00:50:00,
2013-11-04 19:55:00,33.1,23.7,30.67,South,186,0.0,0.0,68,0.00,,,0.00,meteobridge,2013-11-05 00:55:00,
2013-11-04 20:00:00,32.9,23.5,30.67,South,186,0.0,0.0,68,0.00,,,0.00,meteobridge,2013-11-05 01:00:00,
2013-11-04 20:05:00,32.9,23.9,30.67,South,186,0.0,0.0,69,0.00,,,0.00,meteobridge,2013-11-05 01:05:00,
2013-11-04 20:11:00,32.7,23.4,30.67,South,186,0.0,0.0,68,0.00,,,0.00,meteobridge,2013-11-05 01:11:00,
2013-11-04 20:16:00,32.7,22.6,30.68,South,186,0.0,0.0,66,0.00,,,0.00,meteobridge,2013-11-05 01:16:00,
2013-11-04 20:21:00,32.7,22.6,30.68,South,186,0.0,0.0,66,0.00,,,0.00,meteobridge,2013-11-05 01:21:00,
2013-11-04 20:27:00,32.7,23.0,30.68,South,186,0.0,0.0,67,0.00,,,0.00,meteobridge,2013-11-05 01:27:00,
2013-11-04 20:32:00,32.7,22.6,30.68,South,186,0.0,0.0,66,0.00,,,0.00,meteobridge,2013-11-05 01:32:00,
2013-11-04 20:37:00,32.5,22.5,30.68,South,186,0.0,0.0,66,0.00,,,0.00,meteobridge,2013-11-05 01:37:00,
2013-11-04 20:42:00,32.5,22.5,30.68,South,186,0.0,0.0,66,0.00,,,0.00,meteobridge,2013-11-05 01:42:00,
2013-11-04 20:47:00,32.4,23.0,30.69,South,186,0.0,0.0,68,0.00,,,0.00,meteobridge,2013-11-05 01:47:00,
2013-11-04 20:53:00,32.4,23.0,30.69,South,186,0.0,0.0,68,0.00,,,0.00,meteobridge,2013-11-05 01:53:00,
2013-11-04 20:58:00,32.2,23.2,30.69,South,186,0.0,0.0,69,0.00,,,0.00,meteobridge,2013-11-05 01:58:00,
2013-11-04 21:03:00,32.0,23.4,30.69,South,186,0.0,0.0,70,0.00,,,0.00,meteobridge,2013-11-05 02:03:00,
2013-11-04 21:08:00,31.8,23.2,30.69,South,186,0.0,0.0,70,0.00,,,0.00,meteobridge,2013-11-05 02:08:00,
2013-11-04 21:14:00,31.6,23.4,30.69,South,186,0.0,0.0,71,0.00,,,0.00,meteobridge,2013-11-05 02:14:00,
2013-11-04 21:19:00,31.5,23.2,30.69,South,186,0.0,0.0,71,0.00,,,0.00,meteobridge,2013-11-05 02:19:00,
2013-11-04 21:25:00,31.3,22.6,30.69,South,186,0.0,0.0,70,0.00,,,0.00,meteobridge,2013-11-05 02:25:00,
2013-11-04 21:30:00,30.9,22.6,30.68,South,186,0.0,0.0,71,0.00,,,0.00,meteobridge,2013-11-05 02:30:00,
2013-11-04 21:35:00,30.7,22.8,30.68,South,186,0.0,0.0,72,0.00,,,0.00,meteobridge,2013-11-05 02:35:00,
2013-11-04 21:40:00,30.7,23.2,30.69,South,186,0.0,0.0,73,0.00,,,0.00,meteobridge,2013-11-05 02:40:00,
2013-11-04 21:46:00,30.6,23.5,30.69,South,186,0.0,0.0,75,0.00,,,0.00,meteobridge,2013-11-05 02:46:00,
2013-11-04 21:51:00,30.6,23.5,30.69,South,186,0.0,0.0,75,0.00,,,0.00,meteobridge,2013-11-05 02:51:00,
2013-11-04 21:56:00,30.6,23.2,30.69,South,186,0.0,0.0,74,0.00,,,0.00,meteobridge,2013-11-05 02:56:00,
2013-11-04 22:01:00,30.6,23.2,30.69,South,186,0.0,0.0,74,0.00,,,0.00,meteobridge,2013-11-05 03:01:00,
2013-11-04 22:07:00,30.6,23.5,30.68,South,186,0.0,0.0,75,0.00,,,0.00,meteobridge,2013-11-05 03:07:00,
2013-11-04 22:12:00,30.6,23.2,30.69,South,186,0.0,0.0,74,0.00,,,0.00,meteobridge,2013-11-05 03:12:00,
2013-11-04 22:17:00,30.7,23.4,30.69,South,186,0.0,0.0,74,0.00,,,0.00,meteobridge,2013-11-05 03:17:00,
2013-11-04 22:22:00,30.7,23.4,30.69,South,186,0.0,0.0,74,0.00,,,0.00,meteobridge,2013-11-05 03:22:00,
2013-11-04 22:27:00,30.7,23.7,30.69,South,186,0.0,0.0,75,0.00,,,0.00,meteobridge,2013-11-05 03:27:00,
2013-11-04 22:33:00,30.7,23.7,30.69,South,186,0.0,0.0,75,0.00,,,0.00,meteobridge,2013-11-05 03:33:00,
2013-11-04 22:38:00,30.7,23.7,30.70,South,186,0.0,0.0,75,0.00,,,0.00,meteobridge,2013-11-05 03:38:00,
2013-11-04 22:43:00,30.7,24.1,30.70,South,186,0.0,0.0,76,0.00,,,0.00,meteobridge,2013-11-05 03:43:00,
2013-11-04 22:49:00,30.6,23.5,30.70,South,186,0.0,0.0,75,0.00,,,0.00,meteobridge,2013-11-05 03:49:00,
2013-11-04 22:54:00,30.6,23.5,30.70,South,186,0.0,0.0,75,0.00,,,0.00,meteobridge,2013-11-05 03:54:00,
2013-11-04 22:59:00,30.6,23.9,30.69,South,186,0.0,0.0,76,0.00,,,0.00,meteobridge,2013-11-05 03:59:00,
2013-11-04 23:04:00,30.6,23.9,30.69,South,186,0.0,0.0,76,0.00,,,0.00,meteobridge,2013-11-05 04:04:00,
2013-11-04 23:10:00,30.6,23.9,30.69,South,186,0.0,0.0,76,0.00,,,0.00,meteobridge,2013-11-05 04:10:00,
2013-11-04 23:15:00,30.6,23.9,30.69,South,186,0.0,0.0,76,0.00,,,0.00,meteobridge,2013-11-05 04:15:00,
2013-11-04 23:20:00,30.6,23.9,30.69,South,186,0.0,0.0,76,0.00,,,0.00,meteobridge,2013-11-05 04:20:00,
2013-11-04 23:26:00,30.7,24.1,30.70,South,186,0.0,0.0,76,0.00,,,0.00,meteobridge,2013-11-05 04:26:00,
2013-11-04 23:31:00,30.7,24.6,30.70,South,186,0.0,0.0,78,0.00,,,0.00,meteobridge,2013-11-05 04:31:00,
2013-11-04 23:36:00,30.7,24.4,30.70,South,186,0.0,0.0,77,0.00,,,0.00,meteobridge,2013-11-05 04:36:00,
2013-11-04 23:41:00,30.9,24.8,30.69,South,186,0.0,0.0,78,0.00,,,0.00,meteobridge,2013-11-05 04:41:00,
2013-11-04 23:46:00,30.9,24.6,30.70,South,186,0.0,0.0,77,0.00,,,0.00,meteobridge,2013-11-05 04:46:00,
2013-11-04 23:52:00,30.9,24.6,30.70,South,186,0.0,0.0,77,0.00,,,0.00,meteobridge,2013-11-05 04:52:00,
2013-11-04 23:57:00,31.1,24.8,30.70,South,186,0.0,0.0,77,0.00,,,0.00,meteobridge,2013-11-05 04:57:00,